Weather History for Alexandria, LA

Change the Weather History Date:

Thursday, March 21, 2013

  Actual Average Record
Temperature  
Mean Temperature 54 °F 60 °F  
Max Temperature 66 °F 72 °F 93 °F (1907)
Min Temperature 41 °F 49 °F 28 °F (1965)
Degree Days  
Heating Degree Days 11 6  
Month to date heating degree days 217 163  
Since 1 July heating degree days 1650 1828  
Cooling Degree Days 0 1  
Month to date cooling degree days 11 21  
Year to date cooling degree days 29 38  
Growing Degree Days 3 (Base 50)    
Moisture  
Dew Point 36 °F    
Average Humidity 62    
Maximum Humidity 89    
Minimum Humidity 34    
Precipitation  
Precipitation 0.00 in 0.15 in 2.33 in (2012)
Month to date precipitation 0.26 3.54  
Year to date precipitation 16.71 13.22  
Snow  
Snow 0.00 in - 0.00 in ()
Month to date snowfall 0.0  
Since 1 July snowfall 0.0  
Snow Depth 0.00 in    
Sea Level Pressure  
Sea Level Pressure 29.95 in    
Wind  
Wind Speed 9 mph (SE)    
Max Wind Speed 18 mph    
Max Gust Speed 24 mph    
Visibility 10 miles    
Events      
T = Trace of Precipitation, MM = Missing Value Source: NWS Daily Summary

Daily Weather History Graph

Daily Weather History Graph

Search for Another Location

Airport:

Trip Planner

Search our weather history database for the weather conditions in past years. The results will help you decide how hot, cold, wet, or windy it might be!

Date:

Astronomy

Mar. 21, 2013 Rise Set
Actual Time 7:12 AM CDT 7:22 PM CDT
Civil Twilight 6:48 AM CDT 7:46 PM CDT
Nautical Twilight 6:19 AM CDT 8:15 PM CDT
Astronomical Twilight 5:51 AM CDT 8:43 PM CDT
Moon 2:10 PM CDT (3/21) 3:15 AM CDT (3/21)
Length of Visible Light 12h 58m
Length of Day
12h 10m
Waxing Gibbous, 69% of the Moon is Illuminated
Mar 21
Waxing Gibbous
Mar 27
Full
Apr 2
Last Quarter
Apr 10
New
Apr 18
First Quarter

Hourly Weather History & Observations

Time (CDT) Temp. Windchill Dew Point Humidity Pressure Visibility Wind Dir Wind Speed Gust Speed Precip Events Conditions
12:53 AM 45.0 °F - 37.9 °F 76% 30.06 in 10.0 mi Calm Calm - N/A   Clear
1:53 AM 45.0 °F - 37.0 °F 74% 30.05 in 10.0 mi Calm Calm - N/A   Clear
2:53 AM 42.1 °F - 37.0 °F 82% 30.04 in 10.0 mi Calm Calm - N/A   Clear
3:53 AM 43.0 °F - 37.0 °F 80% 30.04 in 10.0 mi Calm Calm - N/A   Clear
4:53 AM 43.0 °F - 39.0 °F 86% 30.04 in 10.0 mi Calm Calm - N/A   Clear
5:53 AM 46.0 °F 44.8 °F 36.0 °F 68% 30.04 in 10.0 mi ENE 3.5 mph - N/A   Clear
6:53 AM 46.9 °F - 36.0 °F 66% 30.05 in 10.0 mi Calm Calm - N/A   Clear
7:53 AM 48.0 °F - 34.0 °F 58% 30.05 in 10.0 mi ENE 5.8 mph - N/A   Clear
8:53 AM 50.0 °F - 32.0 °F 50% 30.05 in 10.0 mi ENE 9.2 mph - N/A   Clear
9:53 AM 53.1 °F - 32.0 °F 45% 30.05 in 10.0 mi East 12.7 mph - N/A   Partly Cloudy
10:53 AM 57.0 °F - 34.0 °F 42% 30.03 in 10.0 mi East 11.5 mph - N/A   Clear
11:53 AM 57.0 °F - 34.0 °F 42% 30.01 in 10.0 mi ESE 11.5 mph - N/A   Overcast
12:53 PM 57.0 °F - 34.0 °F 42% 29.99 in 10.0 mi SE 12.7 mph - N/A   Overcast
1:53 PM 61.0 °F - 35.1 °F 38% 29.94 in 10.0 mi SE 10.4 mph - N/A   Overcast
2:53 PM 63.0 °F - 35.1 °F 35% 29.90 in 10.0 mi SSE 11.5 mph - N/A   Mostly Cloudy
3:53 PM 63.0 °F - 33.1 °F 33% 29.87 in 10.0 mi SSE 12.7 mph - N/A   Mostly Cloudy
4:53 PM 64.9 °F - 35.1 °F 33% 29.83 in 10.0 mi ESE 13.8 mph - N/A   Partly Cloudy
5:53 PM 64.9 °F - 36.0 °F 34% 29.81 in 10.0 mi SE 16.1 mph - N/A   Partly Cloudy
6:53 PM 64.9 °F - 36.0 °F 34% 29.81 in 10.0 mi South 12.7 mph - N/A   Overcast
7:53 PM 62.1 °F - 34.0 °F 35% 29.82 in 10.0 mi South 8.1 mph - N/A   Mostly Cloudy
8:53 PM 60.1 °F - 37.9 °F 44% 29.82 in 10.0 mi South 10.4 mph - N/A   Mostly Cloudy
9:53 PM 61.0 °F - 39.0 °F 44% 29.82 in 10.0 mi SSE 10.4 mph 18.4 mph N/A   Overcast
10:53 PM 61.0 °F - 39.9 °F 46% 29.84 in 10.0 mi SSE 9.2 mph - N/A   Overcast
11:53 PM 60.1 °F - 42.1 °F 51% 29.81 in 10.0 mi SSE 10.4 mph 19.6 mph N/A   Mostly Cloudy